Regional Weather Roundup
Issued by NWS

Home | Current Version | Previous Version | Text Only | Print | Product List | Glossary Off
Versions: 1 2 3 4 5 6 7 8 9 10 11 12 13 14 15 16 17 18 19 20 21 22 23 24 25 26 27 28 29 30 31 32 33 34 35 36 37 38 39 40 41 42 43 44 45 46 47 48 49 50

000
ASUS45 KCYS 300910
RWRWY

WYOMING REGIONAL WEATHER ROUNDUP
NATIONAL WEATHER SERVICE CHEYENNE WY
300 AM MDT MON MAY 30 2016

NOTE:  "FAIR" INDICATES FEW OR NO CLOUDS BELOW 12,000 FEET
WITH NO SIGNIFICANT WEATHER AND/OR OBSTRUCTIONS TO VISIBILITY.

WYZ001-301000-
YELLOWSTONE NATIONAL PARK

CITY           SKY/WX    TMP DP  RH WIND       PRES   REMARKS
LK YELLOWSTONE   N/A     38  36  92 CALM      30.18S
W YELLOWSTONE  NOT AVBL

$$
WYZ002>013-054>058-071-098>099-301000-
NORTHERN WYOMING

CITY           SKY/WX    TMP DP  RH WIND       PRES   REMARKS
JACKSON        MOCLDY    46  39  76 W5        30.12S
CODY           MOCLDY    57  37  47 W10       29.98R
GREYBULL       FAIR      63  43  48 NW9       29.91R
WORLAND        MOCLDY    56  41  57 S8        29.92R
SHERIDAN       FAIR      54  44  69 CALM      29.88F
BUFFALO        FAIR      65  34  31 VRB6G17   29.93F
GILLETTE       FAIR      52  41  66 S12       29.90F
HULETT         FAIR      59  45  58 SW3       29.94S
NEWCASTLE      FAIR      63  41  45 E15       29.95F

$$
WYZ014>020-022>026-101>103-301000-
CENTRAL WYOMING

CITY           SKY/WX    TMP DP  RH WIND       PRES   REMARKS
BIG PINEY      FAIR      45  41  86 W3        30.16F
PINEDALE       PTSUNNY   43  41  93 MISG      30.18F
DUBOIS         FAIR      45  32  61 W5        30.10S
LANDER         CLOUDY    55  37  50 E5        30.01F
RIVERTON       FAIR      52  38  58 W9        30.02F
CASPER         FAIR      50  38  63 SW6       30.02S
DOUGLAS          N/A    N/A N/A N/A MISG      30.00F

$$
WYZ021-027>030-104>119-301000-
SOUTHERN WYOMING

CITY           SKY/WX    TMP DP  RH WIND       PRES   REMARKS
EVANSTON       MOCLDY    42  39  89 SE6       30.21F
KEMMERER         N/A     45  37  76 SE8       30.17F
FORT BRIDGER   CLOUDY    46  41  81 W17G24    30.24F
ROCK SPRINGS   FAIR      44  38  79 W3        30.17F
DIXON          PTSUNNY   42  38  86 CALM      30.16S
RAWLINS        FAIR      43  34  70 SE7       30.13S
SARATOGA       FAIR      43  34  70 S12G17    30.15F
LARAMIE        FAIR      40  36  86 S9        30.15F WCI  34
CHEYENNE       FAIR      48  39  71 W9        30.09F
TORRINGTON     FAIR      51  44  77 SE8       30.00S
PINE BLUFFS    FAIR      45  45 100 S7        30.07F

$$



USA.gov is the U.S. government's official web portal to all federal, state and local government web resources and services.